Wind_Speed
11 9 7 5 7 11 15 17 15 3 18 12 8 10 5 2 1 1 3 6 9 8 9 10 10 12 11 8 8 7 4 3 3 5 1 2 3 2 3 7 4 4 7 7 10
6 9 7 5 4 5 9 17 21 12 18 13 11 10 5 1 2 4 6 11 10 9 9 10 13 13 6 5 4 4 3 9 2 2 2 1 2 5 4 4 6 12 17 17 20
6 5 5 5 4 3 4 11 13 14 14 13 12 10 5 4 7 6 8 10 5 8 9 9 12 9 6 4 2 3 3 4 1 3 2 2 4 5 4 7 14 14 18 18 23
6 5 5 5 7 5 5 9 15 16 17 15 13 9 6 6 4 7 12 7 8 11 12 13 10 5 4 3 2 4 2 1 1 3 5 4 5 5 15 21 21 24 26 27 28
4 9 8 5 11 8 6 9 13 15 16 17 12 10 9 11 10 11 10 8 7 9 11 10 9 6 5 5 4 3 1 2 4 11 13 15 14 13 19 27 29 28 27 31 34
5 4 7 5 3 6 7 4 9 15 18 22 15 12 11 7 13 10 8 6 10 12 12 7 7 10 8 4 3 2 2 7 7 10 11 9 16 8 7 7 14 22 27 30 32
8 4 5 4 7 4 4 5 11 20 20 17 15 13 15 8 12 9 7 11 11 9 12 10 8 3 7 4 3 2 3 5 4 3 5 3 12 6 13 14 21 20 22 24 26
7 5 5 5 7 6 5 4 11 20 19 18 18 17 10 14 11 9 10 13 10 8 7 7 5 7 3 7 5 3 3 3 2 4 3 3 12 3 11 10 20 27 29 37 39
10 5 5 5 6 5 3 13 18 22 25 18 14 13 10 17 15 12 10 15 13 10 11 7 4 4 3 4 3 7 2 1 6 3 2 3 11 5 21 32 34 33 30 33 36
10 3 2 2 2 2 16 24 24 31 25 19 17 12 12 12 16 14 11 12 9 11 9 4 5 3 2 3 2 2 2 3 5 3 2 12 22 18 30 22 26 29 31 29 29
4 0 1 2 4 8 10 17 20 12 20 9 10 18 17 20 15 12 12 11 11 7 3 4 4 2 3 3 4 5 2 5 7 8 6 12 17 20 32 17 21 21 18 20 25
1 1 1 5 10 12 10 9 9 19 13 21 17 17 19 16 8 9 9 4 4 2 2 3 1 4 4 4 4 3 3 6 8 2 3 13 20 18 13 7 8 7 17 24 29
2 0 1 5 11 12 8 15 14 16 10 9 11 10 7 8 7 8 9 6 3 3 3 3 2 8 4 4 2 2 4 4 6 7 6 9 8 4 3 4 9 12 24 28 29
6 2 7 11 12 12 15 22 16 7 5 4 5 4 6 9 6 7 5 2 2 2 3 2 2 2 3 3 5 3 7 6 4 6 3 4 5 5 5 7 6 16 22 27 30
7 13 13 15 13 16 17 15 6 1 5 1 1 3 7 8 11 4 3 2 3 2 4 4 1 2 0 4 5 6 3 3 2 5 4 1 3 6 3 5 9 20 27 29 31
11 7 9 14 18 17 20 5 3 5 1 1 3 3 5 7 4 3 1 3 3 1 2 5 2 3 4 2 6 2 2 3 2 1 3 4 5 5 2 3 16 24 29 33 33
12 13 13 19 24 19 12 2 5 5 1 1 3 5 4 3 3 2 1 2 2 3 5 5 2 4 3 1 3 2 2 3 3 1 5 1 3 8 4 5 16 21 30 31 34
12 13 20 24 19 11 5 4 8 2 3 2 5 5 4 1 1 1 2 2 1 4 2 2 4 3 3 3 2 3 4 3 3 2 4 2 5 4 5 16 29 29 30 31 33
15 22 19 17 13 4 2 5 2 2 4 4 4 5 2 1 3 2 1 1 4 5 3 1 4 1 3 3 2 2 4 4 2 2 3 2 6 6 5 20 25 28 29 35 41
10 14 11 4 5 7 4 5 3 3 5 3 4 1 3 1 3 3 2 3 2 5 4 1 3 0 3 3 7 5 2 2 2 3 4 3 4 4 17 25 23 25 33 37 36
2 2 9 5 5 7 4 4 4 7 3 3 3 3 2 3 2 0 2 3 1 2 3 2 1 3 2 2 1 3 2 3 4 2 2 4 4 4 14 16 16 17 26 28 29
3 3 12 3 5 3 2 2 3 4 7 3 4 3 3 3 3 2 3 3 1 7 2 3 1 3 4 3 3 2 3 2 1 2 2 2 4 3 16 16 21 23 28 29 31
3 4 12 3 4 2 2 4 4 4 4 2 2 2 2 4 2 3 3 3 4 3 2 3 1 3 4 2 1 4 2 3 3 1 3 1 5 12 17 20 32 29 31 29 29
2 3 8 13 8 4 3 3 3 5 4 4 2 2 3 1 1 3 1 2 3 4 4 2 2 3 4 4 2 4 3 3 1 1 3 4 7 15 18 18 27 34 36 34 34
4 2 2 2 6 4 2 1 3 3 3 5 2 2 3 3 1 1 1 4 2 4 0 2 1 1 6 5 2 3 5 5 1 4 3 4 8 11 14 14 23 28 35 34 37
3 3 4 3 2 2 5 2 2 1 3 3 4 3 2 3 3 5 3 3 4 3 0 1 2 2 4 6 4 4 8 7 4 4 4 5 3 3 13 16 25 28 32 35 38
7 6 1 4 2 2 1 1 2 2 3 3 3 2 2 1 3 4 5 6 2 1 2 1 2 1 4 3 5 7 6 6 2 4 2 2 2 6 10 13 18 23 27 28 31
Wind_Direction
268 280 269 264 267 257 247 242 239 353 225 224 202 215 231 216 295 105 139 154 151 142 146 141 139 144 143 120 119 122 85 176 223 165 184 18 26 355 282 287 262 230 237 259 280
280 266 271 268 270 303 253 248 245 255 209 208 185 204 202 187 63 84 136 145 145 144 151 148 139 142 96 102 109 102 140 201 211 175 155 177 273 323 311 303 276 262 254 271 279
254 260 263 253 252 269 280 251 244 248 202 189 184 193 183 139 121 37 136 125 142 157 147 144 142 131 80 108 75 119 168 189 238 253 352 235 270 250 262 267 257 265 288 286 282
266 283 296 277 266 289 304 291 235 239 185 181 178 164 151 132 105 63 126 133 145 150 139 131 137 91 97 106 96 95 110 123 294 312 326 282 280 248 246 256 268 275 278 282 281
245 285 319 280 265 264 307 290 221 216 199 163 156 143 132 97 106 115 131 160 158 152 145 135 116 100 111 118 106 95 145 268 259 290 285 281 260 256 256 268 273 272 271 273 277
207 265 314 335 330 266 275 274 212 201 187 167 155 131 119 85 127 133 150 138 118 133 131 124 118 113 107 93 93 143 261 279 284 265 267 267 273 249 277 265 261 270 274 274 275
207 266 310 320 322 325 327 309 192 190 192 158 139 132 113 97 127 123 144 122 114 121 118 109 124 133 125 113 81 56 337 328 267 282 249 311 280 238 278 283 278 280 287 285 283
230 277 322 313 312 330 358 139 158 172 166 133 132 123 90 129 130 128 128 115 116 120 122 110 109 106 70 116 41 48 58 348 303 320 304 126 261 322 319 337 306 298 292 289 290
216 268 311 322 330 340 12 142 140 151 154 131 138 123 114 139 142 137 142 123 122 116 111 113 116 77 79 77 30 26 290 304 306 340 300 239 289 296 294 295 289 289 290 290 290
217 243 331 298 318 112 106 137 143 119 112 123 123 104 134 147 142 142 133 142 121 119 99 73 64 65 26 73 213 196 340 290 248 267 342 292 279 283 283 275 280 286 289 289 291
208 260 146 160 115 113 139 142 115 77 66 74 97 97 133 138 136 145 144 128 122 79 68 35 69 197 208 170 134 131 184 265 248 265 283 263 276 278 281 279 275 279 293 309 305
179 234 242 133 137 133 110 84 103 125 68 69 76 97 124 133 112 141 155 104 75 90 108 37 297 248 123 143 179 204 271 275 284 223 245 287 288 283 284 257 236 269 322 318 316
78 147 204 150 157 135 131 122 116 107 81 44 57 76 101 121 109 131 152 109 114 138 173 149 203 105 131 182 207 209 215 240 252 322 273 288 288 335 288 248 260 267 316 316 311
47 61 187 170 158 135 122 131 123 100 84 32 12 33 72 114 62 128 136 117 60 177 150 239 265 240 192 242 153 277 216 240 290 343 315 34 295 298 278 292 289 286 308 310 310
61 90 109 158 146 148 147 155 158 258 78 335 336 60 80 78 125 58 157 84 116 134 91 262 147 191 11 222 158 229 164 188 220 251 293 334 228 271 334 304 306 317 318 312 307
56 89 134 133 137 130 148 138 336 44 88 44 3 62 73 44 54 101 82 73 74 119 329 245 279 241 217 236 202 300 357 1 304 243 258 234 185 278 217 270 319 322 319 314 309
79 106 121 126 116 127 135 103 43 62 76 97 85 56 58 72 47 56 54 30 105 59 356 330 262 300 206 282 45 93 28 334 356 357 229 182 190 252 241 270 332 325 320 311 308
83 97 109 114 123 132 130 42 64 55 73 84 94 95 81 127 86 138 93 28 112 84 114 359 336 193 168 190 174 189 156 162 262 273 292 129 237 260 229 319 331 329 322 319 316
93 110 106 112 110 90 70 48 67 77 102 109 73 65 42 45 121 85 82 146 212 176 146 49 283 267 188 217 200 195 215 186 243 253 274 249 292 303 330 326 334 333 332 334 332
71 83 89 105 356 7 75 97 70 72 103 91 116 73 147 359 59 53 351 245 274 187 187 231 303 158 290 241 218 221 323 249 212 303 279 289 298 276 329 331 340 341 335 329 338
19 68 8 350 25 48 89 79 79 85 84 94 123 101 100 134 100 177 196 264 268 133 132 199 138 320 270 249 334 191 269 231 300 208 292 312 278 220 336 331 332 327 328 335 344
36 43 2 44 49 29 45 33 101 17 48 78 100 115 130 158 140 203 208 243 258 166 196 202 295 285 254 196 241 303 266 249 226 256 226 269 276 311 346 342 347 340 342 351 356
75 17 19 103 92 11 43 41 75 44 31 52 87 89 163 160 113 228 231 258 248 199 209 174 234 349 341 23 82 261 270 241 242 66 273 305 299 335 346 350 352 353 355 1 4
66 38 43 55 67 101 86 30 82 49 51 56 92 112 126 113 7 176 278 278 296 238 234 182 228 198 205 226 254 304 307 309 173 173 285 235 287 336 351 353 352 349 354 5 15
59 69 62 23 21 58 68 67 55 42 33 28 37 41 156 124 86 106 173 291 244 324 119 156 261 245 252 251 286 267 286 309 319 242 226 318 318 332 346 357 352 353 360 9 15
76 111 85 77 41 62 356 53 100 143 19 340 95 321 337 137 198 192 188 228 231 352 281 5 293 91 277 237 240 265 266 264 242 262 278 305 307 328 327 2 5 3 360 5 11
77 82 74 8 13 87 326 57 98 153 36 81 155 100 44 227 238 272 271 307 305 327 315 2 160 95 264 5 307 288 226 210 257 233 230 327 305 324 329 7 15 4 4 7 16
Height
1471 1472 1472 1473 1473 1473 1475 1477 1478 1478 1480 1484 1487 1489 1491 1493 1494 1495 1496 1498 1499 1501 1503 1505 1507 1509 1511 1514 1516 1519 1528 1533 1529 1532 1529 1530 1530 1530 1530 1529 1529 1528 1527 1526 1526
1467 1468 1470 1470 1471 1471 1471 1473 1476 1478 1478 1481 1485 1488 1490 1492 1494 1495 1497 1497 1500 1501 1504 1505 1507 1510 1512 1516 1517 1520 1527 1527 1527 1528 1530 1531 1531 1531 1530 1528 1527 1527 1526 1526 1525
1464 1465 1466 1467 1468 1469 1468 1469 1472 1476 1477 1479 1483 1487 1489 1491 1494 1498 1497 1499 1500 1502 1504 1506 1508 1510 1514 1518 1521 1521 1525 1526 1527 1528 1529 1529 1530 1529 1528 1525 1524 1525 1525 1525 1524
1461 1463 1464 1465 1466 1467 1467 1467 1468 1473 1474 1477 1481 1485 1489 1491 1497 1498 1499 1501 1501 1502 1505 1507 1510 1511 1516 1521 1522 1523 1526 1528 1528 1527 1528 1528 1527 1525 1524 1519 1520 1521 1521 1521 1520
1461 1462 1462 1463 1464 1466 1465 1465 1466 1470 1474 1475 1481 1484 1488 1491 1496 1499 1501 1501 1503 1503 1506 1509 1509 1512 1517 1521 1523 1524 1527 1527 1527 1527 1526 1525 1523 1522 1514 1515 1516 1516 1516 1516 1515
1459 1459 1461 1462 1462 1464 1464 1463 1463 1468 1472 1475 1479 1482 1487 1493 1498 1501 1501 1503 1503 1505 1507 1510 1511 1513 1518 1522 1524 1525 1526 1526 1525 1524 1524 1522 1516 1517 1509 1510 1510 1510 1511 1510 1510
1457 1457 1460 1461 1462 1461 1460 1460 1461 1467 1471 1472 1478 1481 1486 1496 1499 1500 1503 1503 1505 1509 1509 1510 1513 1515 1518 1521 1523 1524 1525 1525 1524 1524 1522 1519 1508 1508 1506 1506 1503 1504 1504 1503 1502
1455 1457 1459 1461 1461 1460 1458 1459 1461 1467 1471 1471 1479 1482 1490 1498 1499 1503 1505 1503 1507 1510 1511 1513 1514 1518 1519 1520 1523 1526 1529 1527 1525 1524 1520 1520 1499 1504 1506 1505 1501 1498 1498 1496 1495
1455 1456 1459 1459 1460 1460 1458 1460 1464 1468 1472 1478 1483 1486 1494 1498 1501 1504 1507 1507 1509 1511 1512 1514 1517 1521 1522 1523 1528 1533 1531 1535 1528 1523 1521 1520 1503 1505 1504 1503 1496 1491 1490 1488 1485
1456 1457 1459 1462 1462 1460 1461 1460 1465 1466 1473 1481 1485 1492 1496 1500 1502 1505 1509 1510 1511 1512 1514 1517 1519 1523 1527 1527 1536 1537 1536 1535 1533 1523 1520 1519 1505 1501 1496 1496 1491 1486 1483 1480 1477
1457 1458 1459 1463 1462 1462 1465 1467 1471 1478 1480 1485 1489 1488 1495 1499 1502 1507 1510 1511 1512 1514 1521 1520 1525 1528 1524 1525 1529 1535 1538 1538 1529 1520 1521 1512 1503 1496 1485 1489 1485 1482 1478 1474 1472
1459 1458 1460 1462 1464 1465 1467 1468 1471 1476 1485 1488 1492 1491 1497 1499 1505 1509 1513 1513 1515 1523 1522 1526 1528 1521 1522 1527 1530 1531 1534 1529 1519 1515 1515 1504 1496 1486 1482 1481 1479 1477 1474 1469 1464
1459 1460 1460 1463 1466 1469 1470 1473 1477 1476 1486 1497 1498 1500 1502 1505 1510 1512 1514 1514 1519 1523 1523 1524 1522 1520 1523 1527 1526 1527 1531 1527 1522 1515 1510 1508 1490 1484 1481 1478 1476 1475 1470 1464 1459
1459 1458 1460 1464 1471 1472 1473 1477 1479 1479 1494 1506 1503 1505 1504 1506 1510 1513 1514 1517 1519 1520 1522 1524 1521 1521 1521 1522 1523 1530 1518 1518 1518 1518 1519 1508 1502 1485 1480 1477 1475 1472 1468 1460 1454
1461 1461 1462 1465 1468 1474 1479 1481 1483 1483 1507 1510 1507 1507 1506 1508 1514 1516 1516 1516 1518 1520 1524 1524 1518 1520 1517 1516 1520 1517 1515 1515 1515 1517 1519 1511 1510 1483 1482 1475 1472 1468 1462 1458 1451
1467 1466 1466 1467 1471 1476 1479 1482 1483 1499 1527 1510 1507 1507 1507 1510 1514 1517 1518 1517 1517 1520 1522 1520 1516 1515 1514 1513 1514 1512 1513 1515 1516 1514 1513 1508 1508 1488 1479 1475 1468 1463 1456 1449 1442
1472 1472 1471 1471 1474 1479 1481 1483 1495 1503 1508 1513 1510 1507 1511 1515 1517 1519 1519 1520 1524 1533 1537 1520 1517 1514 1513 1515 1515 1514 1517 1529 1527 1527 1509 1521 1509 1479 1476 1471 1467 1458 1451 1443 1434
1479 1479 1479 1479 1482 1484 1485 1486 1500 1503 1506 1508 1510 1513 1518 1518 1520 1520 1522 1526 1521 1523 1531 1528 1518 1512 1511 1513 1512 1514 1519 1527 1519 1517 1502 1506 1489 1473 1469 1466 1463 1457 1447 1436 1426
1487 1484 1485 1486 1487 1487 1488 1499 1505 1506 1506 1509 1513 1522 1520 1519 1522 1521 1522 1522 1517 1518 1526 1522 1520 1509 1510 1509 1511 1512 1508 1508 1510 1513 1501 1500 1487 1471 1468 1464 1458 1451 1442 1430 1419
1495 1493 1492 1491 1490 1489 1493 1502 1505 1506 1508 1510 1521 1518 1525 1523 1524 1526 1521 1516 1515 1515 1516 1518 1523 1510 1508 1506 1505 1505 1506 1503 1503 1506 1488 1488 1500 1479 1471 1459 1450 1442 1437 1428 1418
1495 1495 1494 1493 1492 1492 1505 1505 1506 1507 1507 1509 1515 1519 1521 1521 1522 1530 1519 1515 1513 1515 1516 1516 1519 1508 1507 1504 1503 1504 1503 1502 1497 1499 1494 1487 1485 1481 1474 1466 1458 1450 1441 1430 1420
1495 1496 1495 1493 1495 1501 1509 1505 1506 1508 1507 1509 1511 1515 1518 1520 1521 1525 1519 1516 1513 1512 1514 1513 1512 1513 1504 1502 1501 1502 1502 1501 1502 1495 1503 1496 1481 1470 1468 1464 1458 1449 1439 1429 1420
1495 1496 1496 1493 1507 1511 1507 1507 1508 1509 1510 1510 1512 1512 1514 1516 1520 1518 1521 1512 1511 1511 1510 1511 1514 1517 1502 1503 1502 1501 1499 1500 1498 1501 1495 1494 1482 1467 1464 1461 1452 1445 1437 1430 1422
1497 1501 1499 1499 1504 1507 1509 1511 1511 1512 1511 1510 1511 1511 1513 1514 1515 1515 1518 1510 1509 1508 1508 1509 1509 1515 1513 1507 1504 1503 1499 1497 1500 1499 1493 1491 1481 1466 1465 1461 1455 1446 1438 1431 1425
1499 1505 1506 1511 1509 1509 1510 1511 1513 1515 1513 1511 1511 1511 1512 1513 1515 1514 1515 1510 1507 1507 1507 1509 1512 1509 1505 1504 1503 1501 1498 1495 1498 1492 1493 1482 1480 1472 1472 1467 1463 1455 1443 1436 1430
1502 1505 1506 1508 1510 1510 1512 1515 1514 1514 1514 1512 1513 1513 1512 1513 1514 1514 1512 1510 1509 1509 1508 1509 1509 1510 1507 1500 1501 1500 1495 1491 1490 1487 1486 1482 1479 1477 1473 1472 1467 1460 1452 1444 1438
1504 1505 1506 1511 1511 1512 1515 1515 1515 1514 1516 1513 1513 1513 1512 1512 1512 1512 1511 1511 1511 1512 1511 1511 1511 1514 1509 1504 1502 1498 1486 1484 1485 1483 1485 1483 1480 1477 1473 1474 1473 1468 1461 1455 1448